This demonstration page uses our WeatherBlox Daily Observations layout. Learn more.

Left ArrowRight Arrow

Hourly Observations for July 10, 2016

Temp ( °F °C ) Dew Point ( °F °C ) Humidity (%) Winds ( mph kmh ) Pressure ( in mb ) Visibility ( mi km ) Precip ( " mm )
12:53 am 00:53 Clear 77 25 65 18.3 66 66 Calm 30.00 1016 10 16 0.00 0.00
1:53 am 01:53 Clear 75 23.9 66 18.9 74 74 NW 3 6 29.98 1015 10 16 0.00 0.00
2:53 am 02:53 Clear 75 23.9 66 18.9 74 74 Calm 29.97 1015 10 16 0.00 0.00
3:53 am 03:53 Clear 74 23.3 66 18.9 76 76 WSW 3 6 29.97 1015 10 16 0.00 0.00
4:53 am 04:53 Clear 73 22.8 66 18.9 79 79 SW 3 6 29.99 1016 10 16 0.00 0.00
5:53 am 05:53 Clear 72 22.2 66 18.9 82 82 SW 5 7 30.01 1016 10 16 0.00 0.00
6:53 am 06:53 Sunny 72 22.2 66 18.9 82 82 Calm 30.02 1017 10 16 0.00 0.00
7:53 am 07:53 Sunny 73 22.8 67 19.4 81 81 W 5 7 30.04 1017 10 16 0.00 0.00
8:53 am 08:53 Sunny 76 24.4 66 18.9 72 72 NNW 6 9 30.04 1017 10 16 0.00 0.00
9:53 am 09:53 Sunny 78 25.6 67 19.4 69 69 Calm 30.04 1017 10 16 0.00 0.00
10:53 am 10:53 Partly Cloudy 79 26.1 67 19.4 67 67 Calm 30.06 1018 10 16 0.00 0.00
11:53 am 11:53 Sunny 81 27.2 69 20.6 67 67 W 5 7 30.05 1018 10 16 0.00 0.00
12:53 pm 12:53 Sunny 85 29.4 70 21.1 61 61 Calm 30.05 1018 10 16 0.00 0.00
1:53 pm 13:53 Mostly Sunny 88 31.1 69 20.6 54 54 VRB 6 9 30.03 1017 10 16 0.00 0.00
2:53 pm 14:53 Sunny 90 32.2 66 18.9 45 45 Calm 30.00 1016 10 16 0.00 0.00
3:53 pm 15:53 Mostly Sunny 90 32.2 66 18.9 45 45 VRB 6 9 29.96 1015 10 16 0.00 0.00
4:53 pm 16:53 Cloudy 90 32.2 66 18.9 45 45 NE 3 6 29.96 1015 10 16 0.00 0.00
5:53 pm 17:53 Partly Cloudy 90 32.2 66 18.9 45 45 W 6 9 29.96 1015 10 16 0.00 0.00
6:53 pm 18:53 Sunny 90 32.2 65 18.3 44 44 W 3 6 29.96 1015 10 16 0.00 0.00
7:53 pm 19:53 Sunny 88 31.1 67 19.4 50 50 W 3 6 29.96 1015 10 16 0.00 0.00
8:53 pm 20:53 Clear 87 30.6 67 19.4 51 51 Calm 29.97 1015 10 16 0.00 0.00
9:53 pm 21:53 Mostly Clear 83 28.3 69 20.6 63 63 SW 10 17 30.01 1016 10 16 0.00 0.00
10:53 pm 22:53 Clear 81 27.2 67 19.4 62 62 WSW 7 11 30.02 1017 10 16 0.00 0.00
11:53 pm 23:53 Clear 79 26.1 66 18.9 65 65 WNW 8 13 30.04 1017 10 16 0.00 0.00

Powered by AerisWeather